Location: Glasgow
(55.8642°N, 4.2518°W)
Time: 11:04:43
(UTC+01:00)

ISS - Pass Details

Date: 13 October 2017
Orbit: 401 x 408 km, 51.6° (Epoch: 22 October)

Event Time Altitude Azimuth Distance (km) Brightness Sun altitude
Rises 19:02:54 0° 272° (W) 2,326 2.5 -6.6°
Reaches altitude 10° 19:05:20 10° 255° (WSW) 1,465 0.6 -7.0°
Maximum altitude 19:07:47 20° 207° (SSW) 1,021 -1.4 -7.3°
Drops below altitude 10° 19:10:14 10° 158° (SSE) 1,463 -1.2 -7.6°
Sets 19:12:40 0° 140° (SE) 2,322 -0.3 -8.0°
Enters shadow 19:12:45 - 140° (SE) 2,356 -0.3 -8.0°
